When you browse on this site, cookies collect data to enhance your experience and personalize the content and advertising you see.
Visit our Privacy Policy to learn more. By continuing to use the site, you agree to this use of cookies and data.
  • In Portugal
  • List of Countries
  • For 7 days
  • Water Temperature
  • Weather Map
  • Weather Widgets
  • user-avatar
    Login

    Hourly Weather Albany

    Today, 19 November, Tuesday

    Time Temperature Precipitation Wind Pressure Humidity
    00:00 +17°C° 0 mm 2 mps 756 mmHg 91%
    01:00 +17°C° 0 mm 2 mps 756 mmHg 90%
    02:00 +17°C° 0 mm 2 mps 755 mmHg 91%
    03:00 +17°C° 0 mm 2 mps 755 mmHg 90%
    04:00 +17°C° 0 mm 2 mps 755 mmHg 89%
    05:00 +17°C° 0 mm 2 mps 754 mmHg 88%
    06:00 +19°C° 0 mm 1 mps 754 mmHg 81%
    07:00 +20°C° 0 mm 1 mps 754 mmHg 75%
    08:00 +21°C° 0 mm 1 mps 754 mmHg 70%
    09:00 +22°C° 0 mm 1 mps 753 mmHg 67%
    10:00 +23°C° 0 mm 2 mps 753 mmHg 64%
    11:00 +24°C° 0 mm 3 mps 752 mmHg 61%
    12:00 +22°C° 0 mm 4 mps 752 mmHg 65%
    13:00 +21°C° 0 mm 5 mps 751 mmHg 69%
    14:00 +20°C° 0 mm 6 mps 751 mmHg 74%
    15:00 +19°C° 0 mm 6 mps 751 mmHg 72%
    16:00 +19°C° 0 mm 6 mps 751 mmHg 70%
    17:00 +17°C° 0 mm 6 mps 751 mmHg 68%
    18:00 +16°C° 0 mm 6 mps 751 mmHg 71%
    19:00 +15°C° 0 mm 6 mps 751 mmHg 74%
    20:00 +14°C° 0 mm 5 mps 751 mmHg 77%
    21:00 +13°C° 0 mm 5 mps 751 mmHg 81%
    22:00 +12°C° 0 mm 5 mps 751 mmHg 84%
    23:00 +10°C° 0 mm 5 mps 752 mmHg 88%

    Tomorrow, 20 November, Wednesday

    Time Temperature Precipitation Wind Pressure Humidity
    00:00 +10°C° 0 mm 5 mps 751 mmHg 88%
    01:00 +10°C° 0 mm 6 mps 750 mmHg 88%
    02:00 +10°C° 0 mm 6 mps 750 mmHg 87%
    03:00 +11°C° 0.4 mm 7 mps 750 mmHg 86%
    04:00 +11°C° 0.4 mm 7 mps 751 mmHg 84%
    05:00 +11°C° 0.4 mm 8 mps 751 mmHg 83%
    06:00 +12°C° 0.3 mm 8 mps 752 mmHg 76%
    07:00 +12°C° 0.3 mm 9 mps 752 mmHg 69%
    08:00 +13°C° 0.3 mm 10 mps 753 mmHg 62%
    09:00 +14°C° 0.3 mm 10 mps 753 mmHg 58%
    10:00 +14°C° 0.3 mm 11 mps 754 mmHg 54%
    11:00 +16°C° 0.3 mm 11 mps 754 mmHg 50%
    12:00 +16°C° 0.1 mm 11 mps 755 mmHg 51%
    13:00 +16°C° 0.1 mm 10 mps 755 mmHg 51%
    14:00 +17°C° 0.1 mm 10 mps 755 mmHg 52%
    15:00 +16°C° 0.1 mm 9 mps 756 mmHg 55%
    16:00 +15°C° 0.1 mm 8 mps 757 mmHg 58%
    17:00 +15°C° 0.1 mm 7 mps 757 mmHg 61%
    18:00 +13°C° 0 mm 6 mps 758 mmHg 64%
    19:00 +12°C° 0 mm 5 mps 758 mmHg 67%
    20:00 +11°C° 0 mm 4 mps 759 mmHg 71%
    21:00 +11°C° 0 mm 4 mps 759 mmHg 71%
    22:00 +10°C° 0 mm 4 mps 759 mmHg 72%
    23:00 +10°C° 0 mm 3 mps 760 mmHg 72%

    Day after tomorrow, 21 November, Thursday

    Time Temperature Precipitation Wind Pressure Humidity
    00:00 +10°C° 0 mm 3 mps 759 mmHg 73%
    01:00 +10°C° 0 mm 3 mps 759 mmHg 74%
    02:00 +9°C° 0 mm 3 mps 759 mmHg 75%
    03:00 +8°C° 0 mm 4 mps 759 mmHg 78%
    04:00 +7°C° 0 mm 4 mps 759 mmHg 82%
    05:00 +7°C° 0 mm 4 mps 759 mmHg 85%
    06:00 +10°C° 0 mm 4 mps 759 mmHg 76%
    07:00 +13°C° 0 mm 5 mps 759 mmHg 67%
    08:00 +15°C° 0 mm 5 mps 760 mmHg 58%
    09:00 +16°C° 0 mm 5 mps 760 mmHg 54%
    10:00 +17°C° 0 mm 5 mps 760 mmHg 51%
    11:00 +20°C° 0 mm 5 mps 760 mmHg 47%
    12:00 +20°C° 0 mm 6 mps 759 mmHg 46%
    13:00 +21°C° 0 mm 6 mps 758 mmHg 45%
    14:00 +22°C° 0 mm 7 mps 758 mmHg 45%
    15:00 +21°C° 0 mm 7 mps 758 mmHg 49%
    16:00 +20°C° 0 mm 8 mps 758 mmHg 54%
    17:00 +18°C° 0 mm 8 mps 758 mmHg 58%
    18:00 +17°C° 0 mm 8 mps 758 mmHg 63%
    19:00 +16°C° 0 mm 7 mps 759 mmHg 67%
    20:00 +15°C° 0 mm 7 mps 759 mmHg 71%
    21:00 +14°C° 0 mm 6 mps 759 mmHg 73%
    22:00 +14°C° 0 mm 5 mps 760 mmHg 74%
    23:00 +14°C° 0 mm 4 mps 760 mmHg 76%

    22 November, Friday

    Time Temperature Precipitation Wind Pressure Humidity
    00:00 +13°C° 0 mm 4 mps 760 mmHg 79%
    01:00 +13°C° 0 mm 4 mps 759 mmHg 81%
    02:00 +13°C° 0 mm 3 mps 759 mmHg 84%
    03:00 +12°C° 0 mm 3 mps 759 mmHg 85%
    04:00 +12°C° 0 mm 3 mps 759 mmHg 87%
    05:00 +13°C° 0 mm 2 mps 759 mmHg 88%
    06:00 +14°C° 0.1 mm 3 mps 760 mmHg 82%
    07:00 +16°C° 0.1 mm 3 mps 760 mmHg 75%
    08:00 +18°C° 0.1 mm 3 mps 761 mmHg 69%
    09:00 +19°C° 0.3 mm 3 mps 761 mmHg 69%
    10:00 +20°C° 0.3 mm 4 mps 761 mmHg 68%
    11:00 +20°C° 0.3 mm 4 mps 761 mmHg 68%
    12:00 +20°C° 0.2 mm 4 mps 761 mmHg 68%
    13:00 +20°C° 0.2 mm 4 mps 761 mmHg 68%
    14:00 +20°C° 0.2 mm 5 mps 761 mmHg 69%
    15:00 +19°C° 0 mm 5 mps 761 mmHg 68%
    16:00 +17°C° 0 mm 5 mps 761 mmHg 68%
    17:00 +17°C° 0 mm 5 mps 761 mmHg 68%
    18:00 +15°C° 0 mm 4 mps 761 mmHg 73%
    19:00 +14°C° 0 mm 3 mps 762 mmHg 77%
    20:00 +12°C° 0 mm 3 mps 762 mmHg 82%
    21:00 +12°C° 0 mm 3 mps 762 mmHg 82%
    22:00 +12°C° 0 mm 2 mps 762 mmHg 83%
    23:00 +12°C° 0 mm 2 mps 763 mmHg 84%

    23 November, Saturday

    Time Temperature Precipitation Wind Pressure Humidity
    00:00 +10°C° 0 mm 2 mps 762 mmHg 84%
    01:00 +10°C° 0 mm 2 mps 762 mmHg 84%
    02:00 +10°C° 0 mm 2 mps 762 mmHg 85%
    03:00 +10°C° 0 mm 2 mps 762 mmHg 86%
    04:00 +9°C° 0 mm 2 mps 762 mmHg 87%
    05:00 +9°C° 0 mm 2 mps 762 mmHg 89%
    06:00 +12°C° 0 mm 2 mps 762 mmHg 79%
    07:00 +14°C° 0 mm 2 mps 762 mmHg 70%
    08:00 +17°C° 0 mm 3 mps 762 mmHg 61%
    09:00 +19°C° 0 mm 2 mps 762 mmHg 54%
    10:00 +21°C° 0 mm 2 mps 761 mmHg 47%
    11:00 +25°C° 0 mm 2 mps 761 mmHg 40%
    12:00 +24°C° 0 mm 3 mps 760 mmHg 43%
    13:00 +22°C° 0 mm 4 mps 760 mmHg 47%
    14:00 +21°C° 0 mm 5 mps 759 mmHg 50%
    15:00 +20°C° 0 mm 4 mps 759 mmHg 54%
    16:00 +19°C° 0 mm 4 mps 759 mmHg 57%
    17:00 +18°C° 0 mm 4 mps 758 mmHg 60%
    18:00 +17°C° 0 mm 3 mps 759 mmHg 65%
    19:00 +14°C° 0 mm 3 mps 759 mmHg 71%
    20:00 +14°C° 0 mm 2 mps 759 mmHg 76%
    21:00 +13°C° 0 mm 2 mps 759 mmHg 78%
    22:00 +12°C° 0 mm 1 mps 759 mmHg 80%
    23:00 +12°C° 0 mm 1 mps 759 mmHg 82%

    24 November, Sunday

    Time Temperature Precipitation Wind Pressure Humidity
    00:00 +11°C° 0 mm 1 mps 758 mmHg 84%
    01:00 +11°C° 0 mm 1 mps 758 mmHg 86%
    02:00 +11°C° 0 mm 1 mps 757 mmHg 88%
    03:00 +10°C° 0 mm 1 mps 757 mmHg 88%
    04:00 +10°C° 0 mm 1 mps 757 mmHg 88%
    05:00 +9°C° 0 mm 2 mps 757 mmHg 89%
    06:00 +13°C° 0 mm 2 mps 757 mmHg 79%
    07:00 +14°C° 0 mm 3 mps 757 mmHg 69%
    08:00 +18°C° 0 mm 3 mps 757 mmHg 59%
    09:00 +19°C° 0 mm 4 mps 756 mmHg 58%
    10:00 +20°C° 0 mm 5 mps 756 mmHg 57%
    11:00 +21°C° 0 mm 6 mps 756 mmHg 56%
    12:00 +22°C° 0 mm 6 mps 755 mmHg 57%
    13:00 +22°C° 0 mm 6 mps 755 mmHg 59%
    14:00 +22°C° 0 mm 7 mps 755 mmHg 60%
    15:00 +21°C° 0 mm 7 mps 755 mmHg 65%
    16:00 +20°C° 0 mm 6 mps 755 mmHg 71%
    17:00 +19°C° 0 mm 6 mps 754 mmHg 76%
    18:00 +17°C° 0 mm 6 mps 755 mmHg 78%
    19:00 +16°C° 0 mm 6 mps 756 mmHg 80%
    20:00 +15°C° 0 mm 5 mps 757 mmHg 82%
    21:00 +14°C° 0 mm 5 mps 757 mmHg 83%
    22:00 +13°C° 0 mm 5 mps 757 mmHg 83%
    23:00 +12°C° 0 mm 4 mps 757 mmHg 84%
    Show more